[[{"header":{"parameterUnit":"m.s-1","parameterCategory":1,"la1":30.2991,"la2":30.254,"lo1":-89.0895,"lo2":-89.0444,"dy":0.0017,"dx":0.0017,"nx":28,"ny":28,"refTime":"2025-08-07T21:00:00:Z","depth":0,"parameterNumber":2,"parameterNumberName":"U-component_of_WINDS"},"data":[0,0,0,0,0,0,0,0,0,0,0,0,0,0,0,0,0,0,0,0,0,0,0,0,0,0,0,0,0,0,0,0,0,0,0,0,0,0,0,0,0,0,0,0,0,0,0,0,0,0,0,0,0,0,0,0,0,0,0.0244,0.0245,0,0.0369,0.037,0.0372,0.0428,0.0428,0.0428,0.0428,0.0559,0.0562,0.0566,0,0,0,0,0,0,0,0,0,0,0,0,0,0.0055,0.0058,0.0243,0.0245,0.0247,0.0369,0.0371,0.0372,0.0428,0.0428,0.0428,0.0428,0.0557,0.0562,0.0566,0,0,0,0,0,0,0,0,0,0,0,0,0,0.0154,0.0059,0.0243,0.0289,0.0295,0.0368,0.0371,0.0373,0.0428,0.0428,0.0428,0.0428,0.0556,0.0561,0.0567,0.0605,0,0,0.0583,0.0586,0,0,0,0,0,0,0,0,0.0148,0.0161,0.0281,0.0286,0.0292,0.0383,0.0352,0.0451,0.0428,0.0378,0.0428,0.0427,0.05,0.051,0.0534,0.0611,0.0617,0.0584,0.0587,0.0589,0.0591,0,0,0,0,0,0,0,0.0141,0.0156,0.0293,0.0282,0.029,0.0304,0.0318,0.0371,0.0439,0.0382,0.0386,0.04,0.0503,0.0529,0.0538,0.0618,0.0584,0.0588,0.0592,0.0594,0.0734,0.0734,0,0,0,0,0,0,0.0127,0.015,0.0289,0.0297,0.0218,0.0308,0.0323,0.0354,0.0438,0.0451,0.04,0.0402,0.052,0.0532,0.0543,0.0594,0.0589,0.0594,0.0597,0.0733,0.0734,0.0734,0,0,0,0,0,0,0.0122,0.0139,0.0284,0.0225,0.0244,0.0311,0.0345,0.0357,0.0382,0.0452,0.0465,0.0414,0.052,0.0535,0.0589,0.0599,0.0597,0.0602,0.0733,0.0733,0.0734,0.0695,0,0,0,0,0,0,0.0117,0.0137,0.0151,0.0224,0.0247,0.0327,0.0346,0.0359,0.0391,0.0395,0.0468,0.048,0.0521,0.0581,0.0594,0.0606,0.0606,0.0732,0.0733,0.0734,0.0696,0.0695,0.0693,0,0,0,0,0,0.011,0.0136,0.0152,0.0168,0.0267,0.0328,0.0341,0.0387,0.0392,0.0407,0.0453,0.0478,0.0596,0.0586,0.0602,0.0615,0.0732,0.0733,0.0734,0.0697,0.0695,0.0693,0,0,0,0,0,0,0.0062,0.0146,0.0165,0.0215,0.0264,0.0337,0.0358,0.0383,0.0432,0.0434,0.049,0.0506,0.0555,0.0591,0.0578,0.0657,0.0666,0.067,0.0632,0.0631,0.063,0.062,0.0611,0,0,0,0,0,0.0058,0.0099,0.0171,0.0208,0.0232,0.029,0.0319,0.035,0.0403,0.0424,0.0473,0.0525,0.0573,0.0604,0.0653,0.0701,0.0719,0.0719,0.0718,0.0716,0.0719,0.0748,0.075,0.0738,0.0738,0.0738,0,0,0.0048,0.0099,0.0123,0.02,0.0241,0.0284,0.0308,0.0352,0.0385,0.0431,0.0485,0.0523,0.0584,0.0635,0.0661,0.0667,0.0726,0.0717,0.0716,0.072,0.075,0.0751,0.0752,0.0738,0.0738,0.0738,0,0,0.0054,0.0096,0.0132,0.0173,0.0236,0.0275,0.0283,0.0353,0.038,0.0435,0.0471,0.0511,0.0593,0.0636,0.0668,0.069,0.0715,0.0704,0.0697,0.0725,0.0726,0.0727,0.0735,0.0737,0.0707,0.0707,0.0707,0,0.0035,0.01,0.0148,0.0191,0.0224,0.0267,0.0305,0.0343,0.0418,0.044,0.0446,0.0551,0.0595,0.0657,0.0662,0.0687,0.0699,0.0696,0.0722,0.0723,0.0725,0.0734,0.0737,0.0705,0.0705,0.0705,0.0705,0,0.0074,0.0119,0.0141,0.0212,0.0248,0.0287,0.0342,0.0373,0.0401,0.0439,0.0495,0.055,0.061,0.0627,0.0655,0.0694,0.0696,0.0711,0.0721,0.0724,0.0733,0.0736,0.0702,0.0703,0.0704,0.0704,0,0,0.0053,0.015,0.0157,0.019,0.0263,0.0299,0.0341,0.04,0.0425,0.0476,0.0513,0.0582,0.0596,0.0633,0.0666,0.069,0.0705,0.0703,0.0705,0.0701,0.0751,0.074,0.0743,0.0722,0.0723,0.0723,0.0746,0,0.0069,0.0145,0.019,0.0249,0.0291,0.0334,0.037,0.0419,0.0457,0.0499,0.0541,0.0589,0.0604,0.0626,0.0652,0.0697,0.0716,0.0696,0.0758,0.076,0.0742,0.0747,0.0735,0.0754,0.075,0.0751,0.0751,0,0.0097,0.0146,0.0209,0.0277,0.0297,0.0329,0.0387,0.0426,0.0483,0.0508,0.0549,0.0582,0.0629,0.0635,0.0701,0.0687,0.0715,0.0741,0.0743,0.0751,0.0756,0.0756,0.0762,0.0764,0.0757,0.0757,0.0756,0,0.0076,0.0158,0.0207,0.0234,0.0314,0.0336,0.037,0.0427,0.0459,0.051,0.0532,0.0587,0.0618,0.0661,0.0708,0.0708,0.077,0.0779,0.0793,0.0792,0.0805,0.0803,0.0815,0.0822,0.0821,0.0821,0.0821,0,0.0089,0.0126,0.0198,0.0228,0.0271,0.0322,0.0363,0.0402,0.0451,0.049,0.053,0.0565,0.0626,0.0669,0.0707,0.0756,0.077,0.0792,0.0802,0.0789,0.0786,0.0808,0.0808,0.0822,0.0822,0.0822,0.0822,0,0.0073,0.0123,0.0178,0.025,0.0269,0.0297,0.0359,0.039,0.0429,0.0478,0.0492,0.0554,0.0607,0.0659,0.073,0.0756,0.0805,0.0817,0.0785,0.0791,0.0802,0.08,0.0829,0.0836,0.0837,0.0837,0.0837,0,0.0078,0.0107,0.0182,0.021,0.0244,0.0289,0.0323,0.0375,0.0408,0.0475,0.0498,0.0554,0.0601,0.0684,0.0736,0.0791,0.0806,0.0812,0.0814,0.08,0.0806,0.0804,0.0808,0.081,0.081,0.081,0.081,0,0.0082,0.0105,0.0152,0.0207,0.0246,0.0292,0.0339,0.036,0.0421,0.0457,0.0511,0.0548,0.0621,0.0676,0.0737,0.0774,0.0802,0.0809,0.0815,0.0802,0.0782,0.0794,0.0782,0.0808,0.0808,0.0808,0.0808,0.0808,0.0077,0.0106,0.0163,0.0213,0.0254,0.0298,0.0331,0.0374,0.042,0.0483,0.0511,0.0566,0.0623,0.0707,0.0744,0.0788,0.0795,0.0804,0.0806,0.0808,0.0805,0.0775,0.0799,0.0799,0.0799,0.08,0.08,0,0.0084,0.0123,0.0169,0.0234,0.0274,0.0296,0.035,0.0382,0.043,0.048,0.0526,0.0589,0.0643,0.0699,0.0756,0.0781,0.0796,0.0794,0.0793,0.0802,0.0795,0.0784,0.0782,0.0782,0.0782,0.0782,0.0782,0.0782,0.0092,0.0141,0.0171,0.0242,0.0281,0.0334,0.0363,0.0404,0.0445,0.0513,0.0557,0.0594,0.0647,0.0708,0.0759,0.0774,0.0794,0.0789,0.0808,0.0801,0.0802,0.0803,0.0793,0.0792,0.0792,0.081,0.0811,0.0811]},{"header":{"parameterUnit":"m.s-1","parameterCategory":1,"la1":30.2991,"la2":30.254,"lo1":-89.0895,"lo2":-89.0444,"dy":0.0017,"dx":0.0017,"nx":28,"ny":28,"refTime":"2025-08-07T21:00:00:Z","depth":0,"parameterNumber":3,"parameterNumberName":"V-component_of_WINDS"},"data":[0,0,0,0,0,0,0,0,0,0,0,0,0,0,0,0,0,0,0,0,0,0,0,0,0,0,0,0,0,0,0,0,0,0,0,0,0,0,0,0,0,0,0,0,0,0,0,0,0,0,0,0,0,0,0,0,0,0,1.9371,1.937,0,1.9287,1.9286,1.9285,1.9259,1.926,1.926,1.926,1.9168,1.9165,1.9162,0,0,0,0,0,0,0,0,0,0,0,0,0,1.9503,1.9501,1.9371,1.937,1.9369,1.9287,1.9286,1.9285,1.9259,1.926,1.926,1.9261,1.9169,1.9165,1.9162,0,0,0,0,0,0,0,0,0,0,0,0,0,1.9435,1.95,1.9372,1.9347,1.9344,1.9287,1.9286,1.9284,1.9259,1.926,1.926,1.9261,1.917,1.9166,1.9161,1.9122,0,0,1.9148,1.9146,0,0,0,0,0,0,0,0,1.9439,1.943,1.9351,1.9348,1.9345,1.9284,1.9298,1.923,1.9259,1.9291,1.926,1.9261,1.9206,1.9198,1.9181,1.9117,1.9113,1.9148,1.9145,1.9143,1.9142,0,0,0,0,0,0,0,1.9443,1.9433,1.9338,1.935,1.9346,1.9337,1.9328,1.9285,1.9245,1.9288,1.9286,1.9277,1.9204,1.9185,1.9178,1.9112,1.9148,1.9144,1.9141,1.914,1.9008,1.9007,0,0,0,0,0,0,1.9453,1.9438,1.934,1.9335,1.9395,1.9334,1.9324,1.9303,1.9246,1.9238,1.9276,1.9276,1.9192,1.9184,1.9175,1.9123,1.9143,1.9139,1.9137,1.9009,1.9008,1.9007,0,0,0,0,0,0,1.9456,1.9445,1.9344,1.9386,1.9372,1.9332,1.9308,1.9301,1.9282,1.9237,1.9229,1.9265,1.9192,1.9181,1.9135,1.912,1.9137,1.9133,1.901,1.9009,1.9008,1.902,0,0,0,0,0,0,1.946,1.9446,1.9433,1.9386,1.937,1.9308,1.9307,1.9299,1.9276,1.9274,1.9224,1.9216,1.9192,1.9141,1.9131,1.9114,1.913,1.9011,1.901,1.9008,1.9021,1.9019,1.9018,0,0,0,0,0,1.9465,1.9439,1.9432,1.9421,1.9353,1.9307,1.9298,1.9272,1.9275,1.9259,1.923,1.9218,1.9123,1.9137,1.9124,1.9106,1.9012,1.901,1.9008,1.9022,1.902,1.9018,0,0,0,0,0,0,1.9483,1.9432,1.9424,1.9383,1.9349,1.9303,1.9283,1.9271,1.9235,1.9235,1.9202,1.9191,1.9146,1.9122,1.9138,1.9063,1.9067,1.9062,1.9081,1.9079,1.9078,1.9084,1.9126,0,0,0,0,0,1.9483,1.9452,1.9408,1.9375,1.9359,1.9324,1.9303,1.9286,1.9249,1.9234,1.9201,1.9164,1.9126,1.9101,1.9064,1.9017,1.9004,1.8998,1.8997,1.8996,1.8992,1.8963,1.8959,1.9,1.9,1.9,0,0,1.948,1.9449,1.9431,1.9378,1.935,1.9317,1.9312,1.9277,1.9251,1.9228,1.9183,1.9157,1.9113,1.9067,1.9044,1.9044,1.8978,1.8994,1.8993,1.899,1.8961,1.8957,1.8954,1.8999,1.8999,1.9,0,0,1.9459,1.9433,1.9403,1.9375,1.9333,1.931,1.9302,1.9257,1.9239,1.9194,1.9175,1.9142,1.9078,1.9047,1.9022,1.8988,1.8975,1.8976,1.8969,1.8941,1.8938,1.8935,1.892,1.8916,1.8972,1.8972,1.8972,0,1.9462,1.9413,1.9388,1.9353,1.9329,1.9309,1.9275,1.9249,1.9197,1.9179,1.9181,1.9098,1.9067,1.9012,1.9003,1.8985,1.8973,1.8982,1.8941,1.8937,1.8934,1.892,1.8915,1.8973,1.8973,1.8973,1.8973,0,1.9416,1.9382,1.9362,1.9313,1.9287,1.9253,1.922,1.9196,1.9181,1.9156,1.9108,1.907,1.9024,1.9009,1.8993,1.895,1.8952,1.8948,1.895,1.8931,1.8917,1.8911,1.8973,1.8973,1.8973,1.8973,0,0,1.9405,1.9343,1.9335,1.9312,1.9264,1.9236,1.92,1.9156,1.9135,1.9099,1.9066,1.9011,1.9006,1.8979,1.8959,1.8935,1.8907,1.8933,1.8931,1.8928,1.8854,1.8858,1.8852,1.8898,1.8897,1.8896,1.8858,0,1.9377,1.9315,1.929,1.9238,1.9205,1.9184,1.9152,1.9117,1.9093,1.9059,1.903,1.8992,1.8989,1.8972,1.8947,1.8916,1.8891,1.8918,1.8865,1.8863,1.8876,1.8845,1.8848,1.8814,1.8852,1.8851,1.8851,0,1.9336,1.9301,1.9247,1.9201,1.9186,1.9158,1.9115,1.9084,1.9043,1.9026,1.8995,1.8976,1.8934,1.894,1.8881,1.89,1.8876,1.8857,1.8855,1.8848,1.8855,1.8836,1.8803,1.8797,1.8842,1.8843,1.8843,0,1.9332,1.9271,1.923,1.9211,1.9157,1.9137,1.9113,1.9074,1.9048,1.9009,1.8992,1.8948,1.8924,1.8889,1.8857,1.8865,1.88,1.8804,1.8783,1.8784,1.877,1.8771,1.8731,1.8756,1.8757,1.8757,1.8757,0,1.9303,1.927,1.9227,1.9202,1.9163,1.9133,1.9095,1.9069,1.9033,1.9,1.8979,1.8948,1.8909,1.8872,1.8847,1.88,1.879,1.8773,1.8767,1.8775,1.8777,1.8758,1.8759,1.8755,1.8756,1.8756,1.8756,0,1.9291,1.9262,1.9215,1.9168,1.9155,1.9128,1.9087,1.9059,1.9034,1.8992,1.898,1.8939,1.8894,1.886,1.8801,1.8784,1.8734,1.8728,1.8748,1.8745,1.8726,1.8727,1.8671,1.8662,1.8695,1.8695,1.8695,0,1.9274,1.9249,1.9199,1.9176,1.9153,1.9117,1.9091,1.906,1.9033,1.8983,1.8961,1.8916,1.8877,1.8806,1.8769,1.8723,1.8715,1.8698,1.8708,1.8716,1.8713,1.8714,1.871,1.8697,1.8697,1.8697,1.8696,0,1.9247,1.9233,1.9198,1.9157,1.9127,1.9092,1.9057,1.9039,1.9001,1.8972,1.8927,1.8897,1.8837,1.8791,1.8741,1.8713,1.8697,1.8694,1.8686,1.8694,1.8706,1.8697,1.8744,1.8695,1.8695,1.8695,1.8695,1.8695,1.9231,1.9207,1.9167,1.9128,1.9098,1.9066,1.9038,1.9008,1.8971,1.8921,1.8904,1.8857,1.8814,1.8746,1.8718,1.8678,1.8677,1.8667,1.8664,1.8662,1.8662,1.8713,1.8669,1.8669,1.8669,1.8669,1.8669,0,1.9202,1.9175,1.9139,1.9091,1.9059,1.9049,1.9009,1.8982,1.8942,1.8904,1.8867,1.8814,1.8768,1.8727,1.8679,1.8655,1.8646,1.8643,1.8644,1.8637,1.8666,1.8677,1.8651,1.8651,1.8651,1.8651,1.8651,1.8651,1.9182,1.914,1.9121,1.9062,1.9035,1.899,1.8968,1.8936,1.8906,1.8848,1.8811,1.8785,1.8745,1.8693,1.865,1.8638,1.8621,1.8619,1.8606,1.8633,1.8636,1.8638,1.8648,1.8616,1.8616,1.8581,1.858,1.858]}]]